Погода в Золотом

Россия / Хабаровский край     48°03′42″N   136°23′35″E
темп.,
°C
ветер,
м/с
пор.,
м/с
влажн.,
%
обл.,
%
осадки,
мм/ч
давл.,
гПа
погр.,
м
19 апреля, пн
пн1901:00+1сз119512 0.0 100311
04:000зсз2299100 0.0 100237
07:00+1зсз2598100 0.0 1001440
10:00+1сз31093100 0.0 1001799
13:00+4ссз51074100 0.1 9991350
16:00+6сз4971100 0.2 9981245
19:00+5с117889 0.1 99851
22:00+2ююв22927 0.1 99723
20 апреля, вт
вт2001:00+4з41081100 0.0 996544
04:00−1з7136811 0.7 10001150
07:00−4з816528 0.0 10031423
10:00−1зсз91542100 0.0 10021946
13:00+1зсз91338100 0.1 10032024
16:00+2сз71042100 0.1 10051672
19:00+1сз376684 0.0 1009752
22:00−1зюз3116995 0.0 1011420
21 апреля, ср
ср2101:00−1зсз512535 0.0 1013784
04:00−2з28570 0.0 1016274
07:00−2юз12520 0.0 101882
10:00+5з22330 0.0 1019786
13:00+9сз34270 0.0 1019967
16:00+11сз34240 0.0 10181076
19:00+8сз11370 0.0 101910
22:00+4ююв224516 0.0 102113
22 апреля, чт
чт2201:00+3юв22490 0.0 102324
04:00+2юв22530 0.0 102326
07:00+4юв22510 0.0 102440
10:00+14юв22300 0.0 1022424
13:00+20ююз22210 0.0 10201277
16:00+21юз23180 0.0 10191913
19:00+17ююз1128100 0.0 101911
22:00+12ююв2241100 0.0 102019
23 апреля, пт
пт2301:00+10ююв2249100 0.0 102133
04:00+9ю3555100 0.0 102165
07:00+9ю2458100 0.0 102274
10:00+15ю3443100 0.0 1021418
13:00+18зюз343699 0.0 10211237
16:00+19з443397 0.0 10191634
19:00+16зюз244641 0.0 101896
22:00+12юз236497 0.1 101848